Tracking 22458 objects as of 2-Mar-2021
HD Live streaming from Space Station
objects crossing your sky now

CZ-4 DEB

Track CZ-4 DEB now!
10-day predictions


NORAD ID: 20855
Int'l Code: 1990-081T
Perigee: 853.8 km
Apogee: 888.2 km
Inclination: 98.7 °
Period: 102.2 minutes
Semi major axis: 7241 km
RCS: 7.4909 m2 (large)
Launch date: September 3, 1990
Source: People's Republic of China (PRC)
Launch site: Taiyaun Space Center, China (TSC)

Note: This is SATELLITE DEBRIS
aabbcc
Your satellite tracking list
Your tracking list is empty




NASA's NSSDC Master Catalog

Two Line Element Set (TLE):
1 20855U 90081T   21060.91349021  .00000011  00000-0  30952-4 0  9991
2 20855  98.7058  73.5082 0023725 196.2682 224.5803 14.08688728567089
Source of the keplerian elements: AFSPC